Location: Gälforsberget
(66.6500°N, 22.4167°E)
Time: 22:41:25
(UTC+00:00)

USA 32 - Pass Details

Date: 11 April 2026
Orbit: 775 x 779 km, 85.0° (Epoch: 13 May)

Event Time Altitude Azimuth Distance (km) Brightness Sun altitude
Exits shadow 19:53:57 - 189° (S) 3,303 6.9 -9.6°
Rises 19:54:04 0° 189° (S) 3,258 6.9 -9.6°
Reaches altitude 10° 19:56:24 10° 189° (S) 2,334 6.1 -9.7°
Maximum altitude 20:01:39 88° 103° (ESE) 790 4.1 -10.1°
Drops below altitude 10° 20:06:57 10° 12° (NNE) 2,349 7.1 -10.4°
Sets 20:09:18 0° 13° (NNE) 3,280 7.9 -10.5°
